Time,TemperatureF,DewpointF,PressureIn,WindDirection,WindDirectionDegrees,WindSpeedMPH,WindSpeedGustMPH,Humidity,HourlyPrecipIn,Conditions,Clouds,dailyrainin,SolarRadiationWatts/m^2,SoftwareType,DateUTC
2013-02-03 00:00:00,51.0,28.0,-100.00,West,270,4.0,10.0,40,0.00,,,0.00,0.000000,,2013-02-03 08:00:00,
2013-02-03 00:32:00,51.0,28.0,-100.00,West,270,4.0,10.0,40,0.00,,,0.00,0.000000,,2013-02-03 08:32:00,
2013-02-03 00:42:00,51.0,28.0,-100.00,West,270,4.0,10.0,40,0.00,,,0.00,0.000000,,2013-02-03 08:42:00,
2013-02-03 00:52:00,51.0,28.0,-100.00,West,270,4.0,10.0,40,0.00,,,0.00,0.000000,,2013-02-03 08:52:00,
2013-02-03 01:00:00,49.0,29.0,-100.00,WNW,291,6.0,10.0,46,0.00,,,0.00,0.000000,,2013-02-03 09:00:00,
2013-02-03 01:32:00,49.0,29.0,-100.00,WNW,291,6.0,10.0,46,0.00,,,0.00,0.000000,,2013-02-03 09:32:00,
2013-02-03 01:42:00,49.0,29.0,-100.00,WNW,291,6.0,10.0,46,0.00,,,0.00,0.000000,,2013-02-03 09:42:00,
2013-02-03 01:52:00,49.0,29.0,-100.00,WNW,291,6.0,10.0,46,0.00,,,0.00,0.000000,,2013-02-03 09:52:00,
2013-02-03 02:00:00,51.0,31.0,-100.00,WNW,293,0.0,11.0,46,0.00,,,0.00,0.000000,,2013-02-03 10:00:00,
2013-02-03 02:21:00,51.0,31.0,-100.00,WNW,293,0.0,11.0,46,0.00,,,0.00,0.000000,,2013-02-03 10:21:00,
2013-02-03 02:32:00,51.0,31.0,-100.00,WNW,293,0.0,11.0,46,0.00,,,0.00,0.000000,,2013-02-03 10:32:00,
2013-02-03 02:42:00,51.0,31.0,-100.00,WNW,293,0.0,11.0,46,0.00,,,0.00,0.000000,,2013-02-03 10:42:00,
2013-02-03 02:52:00,51.0,31.0,-100.00,WNW,293,0.0,11.0,46,0.00,,,0.00,0.000000,,2013-02-03 10:52:00,
2013-02-03 03:00:00,48.0,30.0,-100.00,WNW,285,5.0,9.0,50,0.00,,,0.00,0.000000,,2013-02-03 11:00:00,
2013-02-03 03:32:00,48.0,30.0,-100.00,WNW,285,5.0,9.0,50,0.00,,,0.00,0.000000,,2013-02-03 11:32:00,
2013-02-03 03:42:00,48.0,30.0,-100.00,WNW,285,5.0,9.0,50,0.00,,,0.00,0.000000,,2013-02-03 11:42:00,
2013-02-03 03:52:00,48.0,30.0,-100.00,WNW,285,5.0,9.0,50,0.00,,,0.00,0.000000,,2013-02-03 11:52:00,
2013-02-03 04:00:00,47.0,30.0,-100.00,WNW,286,6.0,9.0,52,0.00,,,0.00,0.000000,,2013-02-03 12:00:00,
2013-02-03 04:32:00,47.0,30.0,-100.00,WNW,286,6.0,9.0,52,0.00,,,0.00,0.000000,,2013-02-03 12:32:00,
2013-02-03 04:42:00,47.0,30.0,-100.00,WNW,286,6.0,9.0,52,0.00,,,0.00,0.000000,,2013-02-03 12:42:00,
2013-02-03 04:53:00,47.0,30.0,-100.00,WNW,286,6.0,9.0,52,0.00,,,0.00,0.000000,,2013-02-03 12:53:00,
2013-02-03 05:00:00,45.0,29.0,-100.00,WNW,300,6.0,10.0,53,0.00,,,0.00,0.000000,,2013-02-03 13:00:00,
2013-02-03 05:32:00,45.0,29.0,-100.00,WNW,300,6.0,10.0,53,0.00,,,0.00,0.000000,,2013-02-03 13:32:00,
2013-02-03 05:42:00,45.0,29.0,-100.00,WNW,300,6.0,10.0,53,0.00,,,0.00,0.000000,,2013-02-03 13:42:00,
2013-02-03 05:52:00,45.0,29.0,-100.00,WNW,300,6.0,10.0,53,0.00,,,0.00,0.000000,,2013-02-03 13:52:00,
2013-02-03 06:00:00,46.0,31.0,-100.00,NW,309,2.0,10.0,55,0.00,,,0.00,0.000000,,2013-02-03 14:00:00,
2013-02-03 06:32:00,46.0,31.0,-100.00,NW,309,2.0,10.0,55,0.00,,,0.00,0.000000,,2013-02-03 14:32:00,
2013-02-03 06:42:00,46.0,31.0,-100.00,NW,309,2.0,10.0,55,0.00,,,0.00,0.000000,,2013-02-03 14:42:00,
2013-02-03 06:52:00,46.0,31.0,-100.00,NW,309,2.0,10.0,55,0.00,,,0.00,0.000000,,2013-02-03 14:52:00,
2013-02-03 07:00:00,45.0,29.0,-100.00,WNW,286,4.0,8.0,54,0.00,,,0.00,0.000000,,2013-02-03 15:00:00,
2013-02-03 07:33:00,45.0,29.0,-100.00,WNW,286,4.0,8.0,54,0.00,,,0.00,0.000000,,2013-02-03 15:33:00,
2013-02-03 07:42:00,45.0,29.0,-100.00,WNW,286,4.0,8.0,54,0.00,,,0.00,0.000000,,2013-02-03 15:42:00,
2013-02-03 07:52:00,45.0,29.0,-100.00,WNW,286,4.0,8.0,54,0.00,,,0.00,0.000000,,2013-02-03 15:52:00,
2013-02-03 08:00:00,42.0,26.0,-100.00,WNW,290,7.0,9.0,53,0.00,,,0.00,1.000000,,2013-02-03 16:00:00,
2013-02-03 08:33:00,42.0,26.0,-100.00,WNW,290,7.0,9.0,53,0.00,,,0.00,1.000000,,2013-02-03 16:33:00,
2013-02-03 08:42:00,42.0,26.0,-100.00,WNW,290,7.0,9.0,53,0.00,,,0.00,1.000000,,2013-02-03 16:42:00,
2013-02-03 08:52:00,42.0,26.0,-100.00,WNW,290,7.0,9.0,53,0.00,,,0.00,1.000000,,2013-02-03 16:52:00,
2013-02-03 09:00:00,52.0,30.0,-100.00,SE,124,1.0,12.0,43,0.00,,,0.00,122.000000,,2013-02-03 17:00:00,
2013-02-03 09:32:00,52.0,30.0,-100.00,SE,124,1.0,12.0,43,0.00,,,0.00,122.000000,,2013-02-03 17:32:00,
2013-02-03 09:42:00,52.0,30.0,-100.00,SE,124,1.0,12.0,43,0.00,,,0.00,122.000000,,2013-02-03 17:42:00,
2013-02-03 09:52:00,52.0,30.0,-100.00,SE,124,1.0,12.0,43,0.00,,,0.00,122.000000,,2013-02-03 17:52:00,
2013-02-03 10:00:00,57.0,32.0,-100.00,ESE,108,2.0,6.0,39,0.00,,,0.00,383.000000,,2013-02-03 18:00:00,
2013-02-03 10:23:00,57.0,32.0,-100.00,ESE,108,2.0,6.0,39,0.00,,,0.00,383.000000,,2013-02-03 18:23:00,
2013-02-03 10:33:00,57.0,32.0,-100.00,ESE,108,2.0,6.0,39,0.00,,,0.00,383.000000,,2013-02-03 18:33:00,
2013-02-03 10:42:00,57.0,32.0,-100.00,ESE,108,2.0,6.0,39,0.00,,,0.00,383.000000,,2013-02-03 18:42:00,
2013-02-03 10:52:00,57.0,32.0,-100.00,ESE,108,2.0,6.0,39,0.00,,,0.00,383.000000,,2013-02-03 18:52:00,
2013-02-03 11:00:00,57.0,31.0,-100.00,ESE,104,5.0,7.0,37,0.00,,,0.00,586.000000,,2013-02-03 19:00:00,
2013-02-03 11:32:00,57.0,31.0,-100.00,ESE,104,5.0,7.0,37,0.00,,,0.00,586.000000,,2013-02-03 19:32:00,
2013-02-03 11:42:00,57.0,31.0,-100.00,ESE,104,5.0,7.0,37,0.00,,,0.00,586.000000,,2013-02-03 19:42:00,
2013-02-03 11:52:00,57.0,31.0,-100.00,ESE,104,5.0,7.0,37,0.00,,,0.00,586.000000,,2013-02-03 19:52:00,
2013-02-03 12:00:00,60.0,27.0,-100.00,ESE,115,5.0,9.0,28,0.00,,,0.00,790.000000,,2013-02-03 20:00:00,
2013-02-03 12:33:00,60.0,27.0,-100.00,ESE,115,5.0,9.0,28,0.00,,,0.00,790.000000,,2013-02-03 20:33:00,
2013-02-03 12:42:00,60.0,27.0,-100.00,ESE,115,5.0,9.0,28,0.00,,,0.00,790.000000,,2013-02-03 20:42:00,
2013-02-03 12:52:00,60.0,27.0,-100.00,ESE,115,5.0,9.0,28,0.00,,,0.00,790.000000,,2013-02-03 20:52:00,
2013-02-03 13:00:00,62.0,28.0,-100.00,ESE,114,5.0,9.0,27,0.00,,,0.00,892.000000,,2013-02-03 21:00:00,
2013-02-03 13:33:00,62.0,28.0,-100.00,ESE,114,5.0,9.0,27,0.00,,,0.00,892.000000,,2013-02-03 21:33:00,
2013-02-03 13:42:00,62.0,28.0,-100.00,ESE,114,5.0,9.0,27,0.00,,,0.00,892.000000,,2013-02-03 21:42:00,
2013-02-03 13:52:00,62.0,28.0,-100.00,ESE,114,5.0,9.0,27,0.00,,,0.00,892.000000,,2013-02-03 21:52:00,
2013-02-03 14:00:00,62.0,31.0,-100.00,WSW,244,9.0,16.0,31,0.00,,,-99.99,892.000000,,2013-02-03 22:00:00,
2013-02-03 14:32:00,62.0,31.0,-100.00,WSW,244,9.0,16.0,31,0.00,,,-99.99,892.000000,,2013-02-03 22:32:00,
2013-02-03 14:42:00,62.0,31.0,-100.00,WSW,244,9.0,16.0,31,0.00,,,-99.99,892.000000,,2013-02-03 22:42:00,
2013-02-03 14:52:00,62.0,31.0,-100.00,WSW,244,9.0,16.0,31,0.00,,,-99.99,892.000000,,2013-02-03 22:52:00,
2013-02-03 15:00:00,62.0,31.0,-100.00,West,267,12.0,23.0,31,0.00,,,0.00,811.000000,,2013-02-03 23:00:00,
2013-02-03 15:32:00,62.0,31.0,-100.00,West,267,12.0,23.0,31,0.00,,,0.00,811.000000,,2013-02-03 23:32:00,
2013-02-03 15:42:00,62.0,31.0,-100.00,West,267,12.0,23.0,31,0.00,,,0.00,811.000000,,2013-02-03 23:42:00,
2013-02-03 15:52:00,62.0,31.0,-100.00,West,267,12.0,23.0,31,0.00,,,0.00,811.000000,,2013-02-03 23:52:00,
2013-02-03 16:00:00,61.0,29.0,-100.00,West,275,11.0,21.0,30,0.00,,,0.00,647.000000,,2013-02-04 00:00:00,
2013-02-03 16:32:00,61.0,29.0,-100.00,West,275,11.0,21.0,30,0.00,,,0.00,647.000000,,2013-02-04 00:32:00,
2013-02-03 16:42:00,61.0,29.0,-100.00,West,275,11.0,21.0,30,0.00,,,0.00,647.000000,,2013-02-04 00:42:00,
2013-02-03 16:52:00,61.0,29.0,-100.00,West,275,11.0,21.0,30,0.00,,,0.00,647.000000,,2013-02-04 00:52:00,
2013-02-03 17:00:00,59.0,27.0,-100.00,WNW,286,13.0,22.0,29,0.00,,,0.00,441.000000,,2013-02-04 01:00:00,
2013-02-03 17:22:00,59.0,27.0,-100.00,WNW,286,13.0,22.0,29,0.00,,,0.00,441.000000,,2013-02-04 01:22:00,
2013-02-03 17:32:00,59.0,27.0,-100.00,WNW,286,13.0,22.0,29,0.00,,,0.00,441.000000,,2013-02-04 01:32:00,
2013-02-03 17:42:00,59.0,27.0,-100.00,WNW,286,13.0,22.0,29,0.00,,,0.00,441.000000,,2013-02-04 01:42:00,
2013-02-03 17:52:00,59.0,27.0,-100.00,WNW,286,13.0,22.0,29,0.00,,,0.00,441.000000,,2013-02-04 01:52:00,
2013-02-03 18:00:00,57.0,22.0,-100.00,WNW,286,7.0,23.0,25,0.00,,,0.00,97.000000,,2013-02-04 02:00:00,
2013-02-03 18:22:00,57.0,22.0,-100.00,WNW,286,7.0,23.0,25,0.00,,,0.00,97.000000,,2013-02-04 02:22:00,
2013-02-03 18:32:00,57.0,22.0,-100.00,WNW,286,7.0,23.0,25,0.00,,,0.00,97.000000,,2013-02-04 02:32:00,
2013-02-03 18:42:00,57.0,22.0,-100.00,WNW,286,7.0,23.0,25,0.00,,,0.00,97.000000,,2013-02-04 02:42:00,
2013-02-03 18:52:00,57.0,22.0,-100.00,WNW,286,7.0,23.0,25,0.00,,,0.00,97.000000,,2013-02-04 02:52:00,
2013-02-03 19:00:00,50.0,21.0,-100.00,WNW,302,3.0,13.0,32,0.00,,,0.00,5.000000,,2013-02-04 03:00:00,
2013-02-03 19:32:00,50.0,21.0,-100.00,WNW,302,3.0,13.0,32,0.00,,,0.00,5.000000,,2013-02-04 03:32:00,
2013-02-03 19:42:00,50.0,21.0,-100.00,WNW,302,3.0,13.0,32,0.00,,,0.00,5.000000,,2013-02-04 03:42:00,
2013-02-03 19:52:00,50.0,21.0,-100.00,WNW,302,3.0,13.0,32,0.00,,,0.00,5.000000,,2013-02-04 03:52:00,
2013-02-03 20:00:00,50.0,23.0,-100.00,NW,307,2.0,7.0,35,0.00,,,0.00,0.000000,,2013-02-04 04:00:00,
2013-02-03 20:32:00,50.0,23.0,-100.00,NW,307,2.0,7.0,35,0.00,,,0.00,0.000000,,2013-02-04 04:32:00,
2013-02-03 20:42:00,50.0,23.0,-100.00,NW,307,2.0,7.0,35,0.00,,,0.00,0.000000,,2013-02-04 04:42:00,
2013-02-03 20:52:00,50.0,23.0,-100.00,NW,307,2.0,7.0,35,0.00,,,0.00,0.000000,,2013-02-04 04:52:00,
2013-02-03 21:00:00,46.0,24.0,-100.00,WNW,287,7.0,11.0,41,0.00,,,0.00,0.000000,,2013-02-04 05:00:00,
2013-02-03 21:22:00,46.0,24.0,-100.00,WNW,287,7.0,11.0,41,0.00,,,0.00,0.000000,,2013-02-04 05:22:00,
2013-02-03 21:33:00,46.0,24.0,-100.00,WNW,287,7.0,11.0,41,0.00,,,0.00,0.000000,,2013-02-04 05:33:00,
2013-02-03 21:42:00,46.0,24.0,-100.00,WNW,287,7.0,11.0,41,0.00,,,0.00,0.000000,,2013-02-04 05:42:00,
2013-02-03 21:52:00,46.0,24.0,-100.00,WNW,287,7.0,11.0,41,0.00,,,0.00,0.000000,,2013-02-04 05:52:00,
2013-02-03 22:00:00,45.0,23.0,-100.00,WNW,284,7.0,12.0,42,0.00,,,0.00,0.000000,,2013-02-04 06:00:00,
2013-02-03 22:21:00,45.0,23.0,-100.00,WNW,284,7.0,12.0,42,0.00,,,0.00,0.000000,,2013-02-04 06:21:00,
2013-02-03 22:32:00,45.0,23.0,-100.00,WNW,284,7.0,12.0,42,0.00,,,0.00,0.000000,,2013-02-04 06:32:00,
2013-02-03 22:42:00,45.0,23.0,-100.00,WNW,284,7.0,12.0,42,0.00,,,0.00,0.000000,,2013-02-04 06:42:00,
2013-02-03 22:52:00,45.0,23.0,-100.00,WNW,284,7.0,12.0,42,0.00,,,0.00,0.000000,,2013-02-04 06:52:00,
2013-02-03 23:00:00,46.0,25.0,-100.00,North,0,0.0,12.0,43,0.00,,,0.00,0.000000,,2013-02-04 07:00:00,
2013-02-03 23:32:00,46.0,25.0,-100.00,North,0,0.0,12.0,43,0.00,,,0.00,0.000000,,2013-02-04 07:32:00,
2013-02-03 23:42:00,46.0,25.0,-100.00,North,0,0.0,12.0,43,0.00,,,0.00,0.000000,,2013-02-04 07:42:00,
2013-02-03 23:52:00,46.0,25.0,-100.00,North,0,0.0,12.0,43,0.00,,,0.00,0.000000,,2013-02-04 07:52:00,